Regional Weather Roundup
Issued by NWS

Home | Current Version | Previous Version | Text Only | Print | Product List | Glossary On
Versions: 1 2 3 4 5 6 7 8 9 10 11 12 13 14 15 16 17 18 19 20 21 22 23 24 25 26 27 28 29 30 31 32 33 34 35 36 37 38 39 40 41 42 43 44 45 46 47 48 49 50
000
ASUS43 KLOT 242221
RWRIL

ILLINOIS REGIONAL WEATHER ROUNDUP
NATIONAL WEATHER SERVICE CHICAGO/ROMEOVILLE IL
500 PM CDT SUN MAY 24 2015

NOTE: "FAIR" INDICATES FEW OR NO CLOUDS BELOW 12,000 FEET WITH NO
SIGNIFICANT WEATHER AND/OR OBSTRUCTIONS TO VISIBILITY.

* THESE STATIONS ARE NOT UNDER NWS QUALITY CONTROL. THEY ALSO MAY NOT
  REPORT WEATHER SUCH AS PRECIPITATION OR FOG.

ILZ001-002-007-009-015-016-024-242300-
NORTHWEST ILLINOIS

CITY           SKY/WX    TMP DP  RH WIND       PRES   REMARKS
MOLINE         LGT RAIN  74  67  78 SW9       29.86F
STERLING*      CLOUDY    79  66  65 S9        29.88F HX  81
SAVANNA*       LGT RAIN  67  65  91 CALM      29.90R
$$

ILZ003-004-008-010-011-017-018-242300-
NORTH CENTRAL ILLINOIS

CITY           SKY/WX    TMP DP  RH WIND       PRES   REMARKS
ROCKFORD       CLOUDY    69  62  78 E9        29.96F
FREEPORT*      CLOUDY    68  64  86 E12       29.93F
ROCHELLE*      PTSUNNY   72  69  88 E12       29.94F
DE KALB*       PTSUNNY   69  63  82 E15       29.97F
PERU*          PTSUNNY   82  67  60 S14       29.91F HX  84
$$

ILZ005-006-012>014-019>023-242300-
NORTHEAST ILLINOIS

CITY           SKY/WX    TMP DP  RH WIND       PRES   REMARKS
CHICAGO-OHARE  LGT RAIN  64  59  83 E6        30.01F
CHICAGO-MIDWAY LGT RAIN  65  61  87 N5        30.02R FOG
AURORA         CLOUDY    72  66  81 E14       29.96F
LANSING*       CLOUDY    74  63  69 CALM      29.98F
JOLIET*        LGT RAIN  71  70  96 NE7       29.96F
WAUKEGAN       LGT RAIN  56  53  90 CALM      30.03R FOG
DUPAGE AIRPORT CLOUDY    66  61  84 E12       29.97F
KANKAKEE*      LGT RAIN  81  63  53 S24G30    29.97S HX  82
WHEELING       LGT RAIN  61  57  87 NE3       30.04R FOG
MORRIS*        PTSUNNY   73  69  87 E7        29.93F
ROMEOVILLE*    RAIN      68  67  96 NE6       29.97F
NORTHERLY ISL    N/A     60  54  80 N3          N/A
$$

LMZ740>746-242300-
SOUTHERN LAKE MICHIGAN

STATION/POSITION SKY/WX   TEMP    WIND        PRES    VSBY  WAVE
                          AIR SEA DIR/SP/G                  HT/PER
                          (F)     (DEG/KT/KT) (MB)    (MI)  (FT/S)
SOUTHERN BUOY              47 38   80/ 12/ 12 1017.0F         1
HARRISON CRIB              58     180/  2/  3   N/A
BURNHAM HARBOR             59     350/  2/ 16   N/A
CALUMET HARBOR             61      70/  6/ 10   N/A
BURNS HARBOR               82     160/  7/ 16 1015.9F
MICHIGAN CITY              81     130/ 11/ 14   N/A
MICHIGAN CITY 6N           72 54  190/  8/ 16   N/A           1
ST. JOSEPH                 71 56  140/ 12/ 14   N/A           1
$$

ILZ025>027-034>036-040-047-049-050-058-095>099-242300-
WEST-CENTRAL ILLINOIS

CITY           SKY/WX    TMP DP  RH WIND       PRES   REMARKS
QUINCY         MOSUNNY   78  64  61 S17G31    29.86S HX  80
GALESBURG*     PTSUNNY   75  65  70 S13G24    29.87F
MACOMB*        MOSUNNY   81  64  57 S17G26    29.88F HX  83
JACKSONVILLE*  CLOUDY    85  62  45 S15G29    29.88F HX  86
PITTSFIELD*    PTSUNNY   80  65  59 S12G24    29.89F HX  82
$$

ILZ028>032-037-038-041>044-048-051>054-059>061-242300-
CENTRAL ILLINOIS

CITY           SKY/WX    TMP DP  RH WIND       PRES   REMARKS
PONTIAC        PTSUNNY   87  64  46 S21G28    29.94F HX  88
BLOOMINGTON    MOSUNNY   84  65  52 S26       29.95F HX  85
DECATUR        MOSUNNY   83  62  49 S24G33    29.95F HX  84
PEORIA         PTSUNNY   84  63  49 S18G25    29.89F HX  85
LACON*         PTSUNNY   82  64  54 S14G20    29.89F HX  83
LINCOLN*       MOSUNNY   85  62  45 S18G28    29.89F HX  85
SPRINGFIELD    PTSUNNY   85  63  47 S25G35    29.91F HX  86
TAYLORVILLE    CLOUDY    81  63  54 S15G24    29.94F HX  82
$$

ILZ033-039-045-046-055>057-062-063-242300-
EAST-CENTRAL ILLINOIS

CITY           SKY/WX    TMP DP  RH WIND       PRES   REMARKS
CHAMPAIGN      PTSUNNY   84  60  44 S26G36    29.98F HX  84
DANVILLE*      SUNNY     83  61  46 S22G29    29.97F HX  84
RANTOUL*       PTSUNNY   85  62  45 S23G31    29.98F HX  85
MATTOON        PTSUNNY   81  62  52 S17G30    29.99F HX  82
PARIS*         MOSUNNY   84  60  44 S25       30.02F HX  84
$$

ILZ079-100>102-242300-
SOUTHWEST ILLINOIS

CITY           SKY/WX    TMP DP  RH WIND       PRES   REMARKS
ALTON          PTSUNNY   82  66  57 S18G25    29.92  HX  85
BELLEVILLE     PTSUNNY   83  67  59 S22G29    29.92F HX  85
CAHOKIA*       PTSUNNY   83  65  54 S15G26    29.91F HX  85
SPARTA*        CLOUDY    80  65  60 S10       29.96F HX  81
$$

ILZ064>066-069>071-074>076-080>082-084>086-088>090-092>094-242300-
SOUTH-CENTRAL ILLINOIS

CITY           SKY/WX    TMP DP  RH WIND       PRES   REMARKS
CARBONDALE     PTSUNNY   84  63  49 S20       29.96F HX  85
CAIRO*         CLOUDY    83  65  53 S16G23    29.98F HX  85
EFFINGHAM*     MOSUNNY   83  59  44 SE12G17   29.99F HX  83
MARION         CLOUDY    84  66  54 S15       29.99F HX  86
MT. VERNON     PTSUNNY   82  64  54 SE14G21   29.99S HX  84
CENTRALIA*     PTSUNNY   84  61  44 S14G22    29.97S HX  84
SALEM*         PTSUNNY   86  61  42 SE14G24   29.97F HX  86
METROPOLIS*    PTSUNNY   83  65  54 S10G17    29.99F HX  85
$$

ILZ067-068-072-073-078-083-087-091-242300-
SOUTHEAST ILLINOIS

CITY           SKY/WX    TMP DP  RH WIND       PRES   REMARKS
LAWRENCEVILLE    N/A     83  63  50 SE18G25   30.03F HX  84
FLORA*         PTSUNNY   83  61  47 S21       30.00F HX  84
FAIRFIELD*     MOSUNNY   84  63  49 SE16G24   29.98F HX  85
HARRISBURG*    MOSUNNY   83  64  51 SE17      30.01F HX  85
ROBINSON*      PTSUNNY   84  60  43 S17G23    30.03F HX  84
CARMI*         SUNNY     86  55  35 SE20      30.00F HX  84
$$

ABBREVIATIONS USED IN REMARKS
   TC - TEMPERATURE IN CELSIUS
  WCI - WIND CHILL INDEX
   HX - HEAT INDEX
  VSB - VISIBILITY
$$




USA.gov is the U.S. government's official web portal to all federal, state and local government web resources and services.